FO-29
1 24278U 96046B 14142.78175022 -.00000014 00000-0 21897-4 0 3803
2 24278 098.5125 160.1439 0350355 003.7604 044.0664 13.53024116877237
SO-33
1 25509U 98061B 14141.82152259 .00000333 00000-0 51144-4 0 7558
2 25509 031.4346 309.7741 0349897 243.3791 266.4863 14.29538432813372
RS-22
1 27939U 03042A 14142.55539623 .00000787 00000-0 15452-3 0 5098
2 27939 097.8096 317.9783 0013122 184.4493 175.6592 14.65182246568970
VO-52
1 28650U 05017B 14142.08497348 .00001285 00000-0 15439-3 0 7437
2 28650 097.5593 148.3587 0023877 241.3682 118.5132 14.85427867489352
HO-68
1 36122U 09072B 14142.72392975 -.00000043 00000-0 00000 0 0 6093
2 36122 100.2494 195.3750 0007078 295.7528 064.2862 13.16315586213087
AO-73
1 39444U 13066AE 14141.75787103 .00002069 00000-0 28351-3 0 1484
2 39444 097.7726 213.3078 0061084 330.3430 029.4319 14.78245766 25569
UO-11
1 14781U 84021B 14142.16552245 .00000590 00000-0 81692-4 0 4975
2 14781 097.8547 202.7968 0007373 261.4732 098.5646 14.81576511624113
AO-16
1 20439U 90005D 14142.41124749 .00000093 00000-0 50253-4 0 280
2 20439 098.5061 080.2337 0010062 230.7220 276.7476 14.32352474270796
LO-19
1 20442U 90005G 14142.37218124 .00000084 00000-0 46703-4 0 9655
2 20442 098.4768 080.9285 0011191 219.7981 140.2383 14.32555021270983
AO-27
1 22825U 93061C 14141.80731519 .00000062 00000-0 41385-4 0 6713
2 22825 098.6602 088.0310 0008601 023.5709 037.3607 14.29716216 77013
IO-26
1 22826U 93061D 14142.07623391 .00000083 00000-0 49314-4 0 4285
2 22826 098.6545 088.5222 0008952 015.2823 344.8628 14.30016121 77188
GO-32
1 25397U 98043D 14141.80113722 .00000036 00000-0 34364-4 0 3510
2 25397 098.4660 100.7768 0002011 065.0499 353.6025 14.23442236824118
NO-44
1 26931U 01043C 14142.37878325 .00000054 00000-0 52896-4 0 6073
2 26931 067.0519 105.0069 0006164 282.8227 077.2185 14.30112715659915
SO-50
1 27607U 02058C 14141.95980570 .00000495 00000-0 95396-4 0 3988
2 27607 064.5570 312.2930 0044381 019.1237 341.1518 14.73748758613618
CO-55
1 27844U 03031E 14142.30076544 .00000244 00000-0 13165-3 0 9295
2 27844 098.6975 151.4463 0009278 357.8948 069.8204 14.21498034564904
CO-57
1 27848U 03031J 14142.59193243 .00000202 00000-0 11302-3 0 8706
2 27848 098.7068 151.4302 0009280 003.7271 117.2354 14.21186275564863
AO-51
1 28375U 04025K 14142.10520863 .00000176 00000-0 64861-4 0 8456
2 28375 098.2485 089.9051 0084285 071.7140 289.3198 14.41378178520159
CP3
1 31129U 07012N 14142.51685792 .00001019 00000-0 23297-3 0 7525
2 31129 097.9313 121.8040 0100087 091.1176 025.0481 14.54645818376302
CO-65
1 32785U 08021C 14142.16017245 .00001158 00000-0 14092-3 0 9550
2 32785 097.7019 194.3093 0012320 272.8384 150.9459 14.85244098328169
PRISM
1 33493U 09002B 14142.75107204 .00004391 00000-0 46813-3 0 9397
2 33493 098.2480 317.3267 0018122 162.8080 197.3721 14.89308317288397
SOHLA-1
1 33496U 09002E 14142.82282022 .00000294 00000-0 56433-4 0 3561
2 33496 098.1670 263.6965 0005313 332.2038 145.8201 14.70794469285780
TISAT-1
1 36799U 10035E 14142.75895929 .00003055 00000-0 35889-3 0 2003
2 36799 098.0161 234.5645 0014973 049.4871 310.7609 14.85579262208945
STUDSAT
1 36801U 10035G 14141.05191122 .00008255 00000-0 73487-3 0 8260
2 36801 098.0343 240.3629 0008922 031.7922 021.1992 14.96294395209072
ALMASAT-1
1 38078U 12006B 14142.75238819 .00034677 00000-0 75343-3 0 320
2 38078 069.4675 120.5636 0598721 065.6063 355.1768 14.48154805117954
XATCOBEO
1 38082U 12006F 14142.79078565 .00272181 21641-4 18444-2 0 2444
2 38082 069.4429 027.5167 0234833 014.4229 097.5637 15.45864164120453
CUBEBUG-1
1 39153U 13018D 14142.76169070 .00001809 00000-0 25924-3 0 1414
2 39153 098.0411 223.1119 0019212 074.4472 285.8853 14.77670820 57809
ESTCUBE-1
1 39161U 13021C 14142.76476385 .00001403 00000-0 24218-3 0 1221
2 39161 098.0970 223.8475 0011484 113.4475 246.7908 14.69960135 55863
MET-2/21
1 22782U 93055A 14142.77594735 .00000023 00000-0 77089-5 0 613
2 22782 082.5488 193.4664 0021245 339.3326 158.2659 13.83736208 46607
OKEAN-4
1 23317U 94066A 14142.82153837 .00000792 00000-0 88599-4 0 5391
2 23317 082.5393 091.7121 0021013 178.5019 242.5383 14.85493612 59348
NOAA-14
1 23455U 94089A 14142.31109716 -.00000031 00000-0 67616-5 0 7588
2 23455 098.7787 226.2057 0010627 112.9860 287.3317 14.13973186 299
NOAA-15
1 25338U 98030A 14142.44201936 .00000164 00000-0 88415-4 0 1917
2 25338 098.7507 136.3530 0010074 217.0528 297.8754 14.25420152833177
RESURS
1 25394U 98043A 14141.81120738 -.00000014 00000-0 11936-4 0 6603
2 25394 098.4100 107.2964 0001281 037.7698 021.3286 14.24394692824569
FENGYUN1
1 25730U 99025A 14142.48467626 .00000509 00000-0 30215-3 0 1515
2 25730 098.9107 103.7381 0025498 179.3939 324.7727 14.11873528773891
OKEAN-0
1 25860U 99039A 14142.80665211 .00000455 00000-0 74797-4 0 2560
2 25860 098.0400 106.8260 0001981 114.3098 304.6100 14.75255150798410
NOAA-16
1 26536U 00055A 14142.24456815 .00000070 00000-0 61640-4 0 6815
2 26536 098.9924 202.4927 0009620 255.9468 145.9256 14.13042438704459
NOAA-17
1 27453U 02032A 14142.41941687 .00000061 00000-0 43760-4 0 5852
2 27453 098.3128 143.4897 0010584 246.2233 113.7838 14.24746569619016
NOAA-18
1 28654U 05018A 14142.45956977 .00000051 00000-0 53362-4 0 780
2 28654 099.1456 121.4458 0013705 340.6178 128.8450 14.12018128463932
NOAA-19
1 33591U 09005A 14142.48327124 .00000249 00000-0 16114-3 0 2408
2 33591 098.9430 087.5997 0013977 187.4271 282.8894 14.11713092272368
HUBBLE
1 20580U 90037B 14142.47770832 .00001840 00000-0 11336-3 0 186
2 20580 028.4692 206.1367 0003235 015.9477 111.9420 15.05386275120844
ISS
1 25544U 98067A 14142.72054242 .00015094 00000-0 26738-3 0 3417
2 25544 051.6496 225.8355 0003409 028.5772 107.4428 15.50479804887372
CO-58
1 28895U 05043F 14142.54297696 .00000657 00000-0 14002-3 0 7732
2 28895 097.8368 345.7415 0018873 092.8702 267.4661 14.61864573456506
FALCON
1 30776U 07006E 14141.78466969 .00006850 00000-0 35029-3 0 8712
2 30776 035.4291 277.1842 0001212 053.8021 100.1028 15.16054022396720
MAST
1 31126U 07012K 14142.83370382 .00000625 00000-0 14606-3 0 500
2 31126 097.9118 125.0521 0093498 073.8900 355.3566 14.55252291376708
CAPE1
1 31130U 07012P 14142.41270424 .00000964 00000-0 22193-3 0 567
2 31130 097.9326 121.2751 0100615 092.7156 268.5563 14.54402918376063
COMPASS
1 32787U 08021E 14142.13971870 .00002873 00000-0 31999-3 0 9350
2 32787 097.7044 196.4143 0012369 264.8189 095.1616 14.87801497328311
AAUSAT2
1 32788U 08021F 14142.15620794 .00003034 00000-0 33195-3 0 9225
2 32788 097.7055 197.3863 0011789 262.9351 097.0525 14.88502257328377
DO-64
1 32789U 08021G 14142.14981943 .00004177 00000-0 40507-3 0 9618
2 32789 097.7235 203.6333 0011063 247.0346 173.7757 14.93167472328612
CO-66
1 32791U 08021J 14142.14024418 .00002356 00000-0 27199-3 0 9187
2 32791 097.7039 195.2338 0012904 268.9183 091.0555 14.86486223328184
RS-30
1 32953U 08025A 14142.71636748 .00000010 00000-0 00000 0 0 9429
2 32953 082.5042 217.0443 0018638 208.0095 151.9992 12.43047246272095
METEOR-M
1 35865U 09049A 14142.75249599 .00000021 00000-0 28658-4 0 5566
2 35865 098.5508 190.9331 0002667 149.5398 210.5932 14.21922492242725
RS-38
1 35869U 09049E 14142.74961201 .00000033 00000-0 34175-4 0 4800
2 35869 098.5453 190.7388 0005320 157.5965 338.0270 14.22209239242758
JUGNU
1 37839U 11058B 14142.11493225 .00000413 00000-0 79125-4 0 6212
2 37839 019.9622 052.9502 0019126 057.7566 073.0113 14.12306849134864
